[[{"header":{"parameterUnit":"m.s-1","parameterCategory":1,"la1":30.2991,"la2":30.254,"lo1":-89.0895,"lo2":-89.0444,"dy":0.0017,"dx":0.0017,"nx":28,"ny":28,"refTime":"2025-07-14T09:00:00:Z","depth":0,"parameterNumber":2,"parameterNumberName":"U-component_of_WINDS"},"data":[0,0,0,0,0,0,0,0,0,0,0,0,0,0,0,0,0,0,0,0,0,0,0,0,0,0,0,0,0,0,0,0,0,0,0,0,0,0,0,0,0,0,0,0,0,0,0,0,0,0,0,0,0,0,0,0,0,0,3.1463,3.1464,0,3.1565,3.1567,3.1568,3.1522,3.1519,3.1517,3.1515,3.162,3.1625,3.163,0,0,0,0,0,0,0,0,0,0,0,0,0,3.123,3.1234,3.1463,3.1465,3.1466,3.1565,3.1567,3.1568,3.1522,3.1519,3.1516,3.1513,3.1618,3.1625,3.1631,0,0,0,0,0,0,0,0,0,0,0,0,0,3.1331,3.1236,3.1463,3.1455,3.1455,3.1565,3.1567,3.1568,3.1523,3.1519,3.1516,3.1512,3.1616,3.1624,3.1632,3.1755,0,0,3.1655,3.1659,0,0,0,0,0,0,0,0,3.1326,3.134,3.1455,3.1456,3.1456,3.1527,3.1523,3.1631,3.1524,3.1497,3.1515,3.151,3.1592,3.1602,3.1629,3.176,3.1765,3.1656,3.1661,3.1664,3.1666,0,0,0,0,0,0,0,3.1319,3.1335,3.1504,3.1457,3.1458,3.1447,3.1457,3.1543,3.1565,3.1499,3.1496,3.1509,3.1592,3.1622,3.1631,3.1766,3.1656,3.1663,3.1667,3.167,3.2003,3.2007,0,0,0,0,0,0,3.1312,3.133,3.15,3.1507,3.138,3.1454,3.1465,3.1508,3.1564,3.1569,3.1512,3.1507,3.1611,3.1622,3.1635,3.1783,3.1664,3.1671,3.1676,3.1999,3.2004,3.2009,0,0,0,0,0,0,3.1307,3.1327,3.1496,3.1418,3.1438,3.1462,3.151,3.1512,3.1542,3.1573,3.1577,3.1539,3.1608,3.1624,3.1726,3.1786,3.1675,3.1682,3.1994,3.2001,3.2007,3.2079,0,0,0,0,0,0,3.13,3.1326,3.1373,3.1419,3.1443,3.1585,3.1514,3.1517,3.1555,3.1549,3.1599,3.1604,3.1606,3.1714,3.1733,3.1794,3.1688,3.1989,3.1997,3.2005,3.2072,3.2087,3.2101,0,0,0,0,0,3.1292,3.139,3.1375,3.1396,3.1502,3.1589,3.1602,3.1602,3.1561,3.1608,3.1628,3.1602,3.1776,3.1725,3.1746,3.181,3.1985,3.1995,3.2004,3.2065,3.2084,3.2101,0,0,0,0,0,0,3.135,3.1396,3.138,3.1496,3.1539,3.1581,3.164,3.1623,3.1679,3.167,3.1669,3.1681,3.1785,3.1808,3.175,3.1933,3.1874,3.1888,3.1914,3.1932,3.1947,3.1938,3.1694,0,0,0,0,0,3.1377,3.1443,3.1479,3.1577,3.16,3.1617,3.1655,3.1651,3.1696,3.1714,3.1741,3.1786,3.185,3.1893,3.1954,3.2075,3.2085,3.213,3.2145,3.2156,3.2168,3.2233,3.2253,3.204,3.204,3.204,0,0,3.1432,3.1464,3.1507,3.159,3.1623,3.1692,3.1632,3.1708,3.1759,3.1725,3.1822,3.1844,3.1894,3.2005,3.2056,3.2028,3.223,3.2168,3.2178,3.2183,3.2245,3.2265,3.2283,3.2046,3.2045,3.2044,0,0,3.1566,3.1598,3.1683,3.1718,3.1768,3.1778,3.1799,3.1844,3.1857,3.1955,3.1931,3.1992,3.2103,3.2139,3.2172,3.2321,3.2299,3.2341,3.2417,3.2481,3.2497,3.2512,3.2564,3.2583,3.2353,3.2354,3.2354,0,3.1628,3.1731,3.1729,3.1807,3.1844,3.1817,3.1902,3.1936,3.2004,3.203,3.1998,3.2137,3.2168,3.2288,3.2324,3.2352,3.2375,3.2335,3.2495,3.251,3.2524,3.2574,3.2593,3.2358,3.2358,3.2357,3.2357,0,3.1804,3.1875,3.1938,3.2004,3.2048,3.213,3.2141,3.2186,3.2179,3.2193,3.2293,3.233,3.2398,3.2426,3.242,3.2545,3.2525,3.2494,3.2435,3.2549,3.2595,3.2615,3.2365,3.2363,3.2362,3.2361,0,0,3.1977,3.2041,3.2064,3.2093,3.2147,3.2203,3.2283,3.2349,3.2387,3.2436,3.2503,3.2598,3.2569,3.2606,3.2605,3.2661,3.2775,3.2622,3.2623,3.2648,3.2914,3.2936,3.2958,3.2762,3.2765,3.2768,3.2909,0,3.2115,3.2255,3.2256,3.2385,3.2451,3.2426,3.2496,3.2537,3.2552,3.2611,3.2628,3.2695,3.2652,3.2675,3.2729,3.275,3.2828,3.274,3.2823,3.2826,3.281,3.2983,3.3007,3.3138,3.2928,3.2931,3.2933,0,3.2294,3.2347,3.2483,3.2527,3.2554,3.2617,3.2677,3.2734,3.2779,3.2787,3.2829,3.2818,3.29,3.284,3.2952,3.2892,3.2927,3.2942,3.2947,3.2954,3.2886,3.2993,3.318,3.3199,3.2962,3.296,3.2958,0,3.2406,3.2512,3.2606,3.2632,3.2686,3.273,3.2755,3.2797,3.2836,3.289,3.2915,3.2978,3.3011,3.306,3.3067,3.3022,3.318,3.312,3.3188,3.3188,3.3221,3.3219,3.3415,3.3246,3.3245,3.3245,3.3245,0,3.2559,3.2642,3.2656,3.2714,3.2807,3.2808,3.29,3.2921,3.2959,3.302,3.3004,3.3062,3.3068,3.3128,3.3134,3.3226,3.3242,3.325,3.325,3.3251,3.325,3.3272,3.3263,3.325,3.3249,3.3248,3.3247,0,3.2698,3.2711,3.2812,3.2855,3.2868,3.2934,3.2971,3.3026,3.304,3.3119,3.3137,3.3159,3.3229,3.3241,3.3324,3.3328,3.3437,3.3429,3.3422,3.342,3.3487,3.348,3.3703,3.3732,3.3546,3.3547,3.3549,0,3.2794,3.2858,3.2907,3.2947,3.2974,3.3039,3.3079,3.3082,3.3125,3.3182,3.323,3.3299,3.3353,3.3466,3.349,3.3553,3.3545,3.3619,3.3555,3.3553,3.3545,3.3541,3.3547,3.3631,3.3633,3.3635,3.3636,0,3.2963,3.2966,3.3025,3.3086,3.3134,3.3182,3.3228,3.3261,3.3271,3.332,3.3391,3.3433,3.3517,3.3585,3.3648,3.3673,3.3657,3.3657,3.3675,3.3676,3.3668,3.3672,3.3454,3.3651,3.365,3.3649,3.3648,3.3647,3.3083,3.3138,3.3181,3.3247,3.3282,3.3324,3.3378,3.3399,3.3458,3.3526,3.3526,3.3603,3.3648,3.373,3.376,3.3821,3.3797,3.3824,3.3831,3.3838,3.3843,3.366,3.3832,3.3832,3.3832,3.3831,3.3831,0,3.325,3.3277,3.3337,3.3401,3.3453,3.3432,3.3482,3.3526,3.3595,3.3637,3.3691,3.3773,3.3838,3.3867,3.3932,3.3975,3.3969,3.3992,3.3988,3.3994,3.3862,3.3838,3.3996,3.3996,3.3996,3.3996,3.3996,3.3996,3.3343,3.3435,3.3443,3.3552,3.3578,3.3654,3.3684,3.3723,3.3757,3.3848,3.3903,3.3921,3.3958,3.4025,3.4085,3.4092,3.4116,3.4142,3.4145,3.402,3.4004,3.3988,3.3966,3.4147,3.4148,3.4273,3.4274,3.4275]},{"header":{"parameterUnit":"m.s-1","parameterCategory":1,"la1":30.2991,"la2":30.254,"lo1":-89.0895,"lo2":-89.0444,"dy":0.0017,"dx":0.0017,"nx":28,"ny":28,"refTime":"2025-07-14T09:00:00:Z","depth":0,"parameterNumber":3,"parameterNumberName":"V-component_of_WINDS"},"data":[0,0,0,0,0,0,0,0,0,0,0,0,0,0,0,0,0,0,0,0,0,0,0,0,0,0,0,0,0,0,0,0,0,0,0,0,0,0,0,0,0,0,0,0,0,0,0,0,0,0,0,0,0,0,0,0,0,0,1.1769,1.177,0,1.1786,1.1786,1.1786,1.1762,1.1762,1.1761,1.176,1.1777,1.1778,1.1779,0,0,0,0,0,0,0,0,0,0,0,0,0,1.1716,1.1717,1.1769,1.177,1.177,1.1786,1.1786,1.1786,1.1763,1.1762,1.1761,1.176,1.1776,1.1778,1.1779,0,0,0,0,0,0,0,0,0,0,0,0,0,1.1737,1.1717,1.1769,1.176,1.1759,1.1786,1.1786,1.1786,1.1763,1.1762,1.176,1.1759,1.1776,1.1778,1.1779,1.1816,0,0,1.1785,1.1786,0,0,0,0,0,0,0,0,1.1735,1.1739,1.1761,1.1761,1.176,1.1771,1.1773,1.1796,1.1763,1.1761,1.176,1.1758,1.1776,1.1778,1.1783,1.1817,1.1818,1.1785,1.1786,1.1787,1.1788,0,0,0,0,0,0,0,1.1734,1.1738,1.1776,1.1761,1.1761,1.1754,1.1756,1.1778,1.1775,1.1761,1.176,1.1762,1.1775,1.1782,1.1784,1.1818,1.1785,1.1787,1.1788,1.1789,1.1881,1.1882,0,0,0,0,0,0,1.1734,1.1737,1.1775,1.1776,1.1744,1.1756,1.1758,1.1769,1.1775,1.1775,1.1763,1.1761,1.1779,1.1781,1.1784,1.1827,1.1787,1.1789,1.179,1.188,1.1881,1.1883,0,0,0,0,0,0,1.1733,1.1738,1.1775,1.1756,1.176,1.1759,1.1771,1.177,1.1776,1.1776,1.1776,1.177,1.1778,1.1781,1.1808,1.1827,1.179,1.1791,1.1878,1.188,1.1882,1.1913,0,0,0,0,0,0,1.1731,1.1737,1.1752,1.1757,1.1761,1.1799,1.1772,1.1771,1.1779,1.1777,1.1783,1.1783,1.1777,1.1805,1.181,1.1829,1.1793,1.1876,1.1879,1.1881,1.191,1.1916,1.1921,0,0,0,0,0,1.173,1.176,1.1753,1.1757,1.1779,1.18,1.1803,1.1796,1.1781,1.1795,1.1795,1.1783,1.1824,1.1808,1.1813,1.1833,1.1875,1.1878,1.1881,1.1908,1.1915,1.1921,0,0,0,0,0,0,1.1758,1.1761,1.1752,1.1785,1.1793,1.1796,1.1814,1.1804,1.1816,1.1812,1.1803,1.1805,1.1833,1.1836,1.1818,1.1868,1.1847,1.1851,1.1866,1.1872,1.1877,1.1876,1.1794,0,0,0,0,0,1.1768,1.1785,1.1786,1.1815,1.1819,1.1816,1.1825,1.1819,1.1826,1.1829,1.1831,1.1838,1.1853,1.1863,1.1876,1.191,1.1911,1.1926,1.1931,1.1936,1.1939,1.1957,1.1964,1.1893,1.1893,1.1892,0,0,1.1789,1.1792,1.1804,1.1821,1.1826,1.1843,1.1819,1.1838,1.1851,1.1832,1.1857,1.1858,1.1866,1.1896,1.191,1.1899,1.1959,1.194,1.1943,1.1944,1.1961,1.1967,1.1973,1.1895,1.1894,1.1894,0,0,1.1836,1.184,1.1865,1.187,1.1877,1.1875,1.1881,1.1885,1.1885,1.191,1.1896,1.1911,1.1936,1.1942,1.1948,1.1996,1.1984,1.2,1.2027,1.2045,1.205,1.2055,1.2072,1.2078,1.2004,1.2004,1.2004,0,1.1861,1.1887,1.1878,1.1899,1.1906,1.1889,1.1913,1.1919,1.193,1.1936,1.1924,1.1955,1.1958,1.1989,1.2001,1.2007,1.2013,1.2,1.205,1.2055,1.2059,1.2075,1.2081,1.2006,1.2006,1.2005,1.2005,0,1.1917,1.1935,1.1954,1.1965,1.1974,1.1996,1.1991,1.2001,1.1994,1.1993,1.2018,1.2021,1.2035,1.2042,1.2035,1.2072,1.2065,1.2052,1.203,1.2068,1.2083,1.2089,1.2008,1.2008,1.2007,1.2007,0,0,1.1984,1.1989,1.1996,1.2001,1.2007,1.202,1.2041,1.2054,1.2063,1.2071,1.2088,1.2109,1.2097,1.2104,1.2097,1.2112,1.2149,1.2097,1.2097,1.2106,1.2189,1.2199,1.2206,1.2141,1.2142,1.2143,1.2188,0,1.2031,1.2067,1.2059,1.2094,1.211,1.2094,1.2111,1.2117,1.2116,1.2129,1.2127,1.2142,1.2125,1.2128,1.2143,1.2142,1.2166,1.2138,1.2157,1.2158,1.2156,1.2214,1.2225,1.2267,1.2194,1.2195,1.2196,0,1.2091,1.21,1.2137,1.214,1.2146,1.2163,1.2173,1.2186,1.2191,1.2189,1.2196,1.2187,1.2207,1.2184,1.2211,1.2193,1.22,1.22,1.2202,1.2204,1.2179,1.2217,1.2281,1.2287,1.2204,1.2204,1.2203,0,1.2135,1.2158,1.2182,1.2187,1.219,1.2202,1.2204,1.2208,1.2216,1.2225,1.223,1.2242,1.2248,1.2257,1.225,1.2235,1.2278,1.2256,1.2277,1.2277,1.2287,1.2287,1.2353,1.2291,1.2291,1.2291,1.2291,0,1.2189,1.2212,1.2202,1.2218,1.2243,1.2233,1.2258,1.2258,1.2261,1.2276,1.2262,1.2276,1.2266,1.2279,1.2274,1.2297,1.23,1.2299,1.2297,1.23,1.23,1.2305,1.2302,1.2293,1.2292,1.2292,1.2292,0,1.2243,1.2238,1.2264,1.2265,1.2265,1.2284,1.2284,1.2298,1.2295,1.2314,1.2317,1.2313,1.2327,1.2321,1.2337,1.2333,1.2362,1.2357,1.236,1.2359,1.2381,1.2379,1.2452,1.2461,1.2394,1.2394,1.2395,0,1.2278,1.2295,1.2298,1.2306,1.2309,1.2323,1.2331,1.2322,1.233,1.2337,1.235,1.2363,1.2373,1.2396,1.2394,1.2406,1.24,1.2425,1.2402,1.2404,1.24,1.24,1.2401,1.243,1.2431,1.2431,1.2432,0,1.234,1.2336,1.2348,1.2358,1.2367,1.2375,1.2382,1.239,1.238,1.2391,1.2405,1.2412,1.2427,1.244,1.245,1.2452,1.244,1.2439,1.2444,1.2448,1.2449,1.2449,1.2373,1.2438,1.2437,1.2437,1.2436,1.2436,1.2386,1.24,1.2403,1.2416,1.242,1.2426,1.2439,1.2437,1.2449,1.246,1.2454,1.247,1.2474,1.2486,1.2489,1.2501,1.2492,1.25,1.2502,1.2504,1.2507,1.2447,1.2503,1.2503,1.2503,1.2503,1.2503,0,1.2447,1.2448,1.246,1.2469,1.2479,1.2466,1.2473,1.2482,1.2497,1.2501,1.2511,1.2527,1.2539,1.2537,1.2548,1.2558,1.2553,1.2561,1.2561,1.2561,1.2515,1.2509,1.2565,1.2565,1.2565,1.2565,1.2565,1.2565,1.248,1.2503,1.2499,1.2523,1.2524,1.254,1.2544,1.255,1.2553,1.2571,1.2581,1.258,1.2581,1.2592,1.2603,1.2602,1.2606,1.2617,1.2614,1.2571,1.2565,1.2559,1.2553,1.2618,1.2618,1.2659,1.2659,1.266]}]]